User: anonymous
Location: Unspecified
(0.0000°N, 0.0000°E)
Time: 02:32:39
(UTC+02:00)
Language:

Resurs 1-3 - Orbit

View from above orbital plane
View from above orbital plane
View from above satellite
View from above satellite

Ground track
Ground track

The orbit data is extracted from the following two-line orbital elements,

1 23342U 94074A   14293.50261948  .00000909  00000-0  13184-3 0  3309
2 23342 098.1642 305.4651 0001249 078.6333 039.8658 14.78526653 74306
Epoch (UTC): 20 October 2014 12:03:46
Eccentricity: 0.0001249
inclination: 98.1642°
perigee height: 633 km
apogee height: 635 km
right ascension of ascending node: 305.4651°
argument of perigee: 78.6333°
revolutions per day: 14.78526653
mean anomaly at epoch: 39.8658°
orbit number at epoch: 7430

The dashed part of the orbit path shows where the satellite is in the earth's shadow,  

DLR